Content
SEND FEEDBACK

Daily
Averages
Monthly
Summary
United States of America

STATEN ISLAND, NEW YORK


Home > North America > United States > New York
Elevation: 152 feet     Latitude: 40 35N     Longitude: 074 09W

WEATHER
 
SELECT A DAY
Number of Records: 191,776;   Date Range: 1/1/95 - 9/29/14
 
SHARE

PRINT THIS DATA

[ ← Previous Day ]
WEATHER ALMANAC - MAY 4, 2014
[ Next Day → ]
[ °C ]   °F
Weather ElementAverageHighLow
Temperature58.3 °F66 °F (3:51 pm)53.1 °F (3:51 am)
Dewpoint36.4 °F50 °F (1:51 am)21 °F (7:51 pm)
Humidity47.6 %86 % (1:51 am)21 % (7:51 pm)
Barometer29.74 in29.80 in (6:51 am)29.67 in (2:51 pm)
Wind Speed17.1 mph31.1 mph (3:51 pm)
Wind Gust44.9 mph (3:51 pm)
Weather ElementAverage
Visibility10 mi
Wind DirectionW (264.6 °)

Weather ElementTotal
Precipitation---
Heating Degree Days5.5 (Base 65)
Growing Degree Days9.6 (Base 50)
Averaged from 24 records on May 4, 2014
WEATHER CONDITIONS BREAKOUT
WIND DIRECTION BREAKOUT
WEATHER BY HOUR - MAY 4, 2014
[ °C ]   °F
Local TimeTemperatureDewpointHumidityBarometerVisibilityWind DirectionWind SpeedGust SpeedPrecipitationEventsConditions
1:51 AM54.0 °F50.0 °F86 %29.78 in10.0 miSW (230°)9.2 mphMostly Cloudy
2:51 AM55.0 °F48.9 °F80 %29.78 in10.0 miWSW (240°)10.4 mphMostly Cloudy
3:51 AM53.1 °F48.9 °F86 %29.77 in10.0 miSW (230°)9.2 mphScattered Clouds
4:51 AM53.1 °F46.9 °F80 %29.78 in10.0 miWSW (240°)12.7 mphPartly Cloudy
5:51 AM53.1 °F44.1 °F71 %29.79 in10.0 miWSW (240°)11.5 mphScattered Clouds
6:51 AM54.0 °F43.0 °F66 %29.80 in10.0 miWSW (240°)8.1 mphMostly Cloudy
7:51 AM55.9 °F42.1 °F60 %29.79 in10.0 miSW (230°)11.5 mphMostly Cloudy
8:51 AM55.9 °F42.1 °F60 %29.78 in10.0 miWSW (240°)13.8 mphOvercast
9:51 AM57.0 °F41.0 °F55 %29.75 in10.0 miWSW (250°)16.1 mph25.3 mphMostly Cloudy
10:51 AM59.0 °F35.1 °F41 %29.73 in10.0 miWest (260°)19.6 mph27.6 mphMostly Cloudy
11:51 AM61.0 °F35.1 °F38 %29.72 in10.0 miWSW (240°)25.3 mph31.1 mphMostly Cloudy
12:51 PM62.1 °F34.0 °F35 %29.70 in10.0 miWSW (250°)20.7 mph33.4 mphMostly Cloudy
1:51 PM61.0 °F33.1 °F35 %29.68 in10.0 miWest (270°)24.2 mph35.7 mphMostly Cloudy
2:51 PM63.0 °F34.0 °F34 %29.67 in10.0 miWest (260°)20.7 mph33.4 mphMostly Cloudy
3:51 PM66.0 °F34.0 °F30 %29.67 in10.0 miWest (270°)31.1 mph44.9 mphMostly Cloudy
4:51 PM64.0 °F33.1 °F31 %29.67 in10.0 miWest (260°)26.5 mph40.3 mphMostly Cloudy
5:35 PM60.8 °F37.4 °F42 %29.69 in10.0 miNW (320°)16.1 mph24.2 mph0.00 inRainLight Rain
5:51 PM60.1 °F37.0 °F42 %29.69 in10.0 miWNW (290°)17.3 mph24.2 mph0.00 inMostly Cloudy
6:51 PM62.1 °F30.9 °F31 %29.69 in10.0 miWest (280°)23.0 mph33.4 mphScattered Clouds
7:51 PM61.0 °F21.0 °F21 %29.71 in10.0 miWNW (300°)20.7 mph29.9 mphScattered Clouds
8:51 PM59.0 °F23.0 °F25 %29.75 in10.0 miWNW (300°)17.3 mph25.3 mphPartly Cloudy
9:51 PM57.0 °F25.0 °F29 %29.78 in10.0 miWNW (300°)11.5 mphPartly Cloudy
10:51 PM57.0 °F26.1 °F30 %29.79 in10.0 miWNW (300°)15.0 mph23.0 mphClear
11:51 PM55.9 °F28.0 °F34 %29.80 in10.0 miNW (310°)18.4 mph28.8 mphClear
Hourly data recorded from KEWR, located miles away from Staten Island, New York







STORIES FROM OUR PARTNERS